Time,TemperatureF,DewpointF,PressureIn,WindDirection,WindDirectionDegrees,WindSpeedMPH,WindSpeedGustMPH,Humidity,HourlyPrecipIn,Conditions,Clouds,dailyrainin,SolarRadiationWatts/m^2,SoftwareType,DateUTC
2013-01-23 00:02:00,29.0,20.0,-100.00,SE,144,8.0,12.0,69,0.00,,,0.00,0.000000,,2013-01-23 06:02:00,
2013-01-23 00:33:00,28.0,20.0,-100.00,SE,143,7.0,10.0,72,0.00,,,0.00,0.000000,,2013-01-23 06:33:00,
2013-01-23 00:43:00,28.0,20.0,-100.00,SE,143,7.0,10.0,72,0.00,,,0.00,0.000000,,2013-01-23 06:43:00,
2013-01-23 00:53:00,28.0,20.0,-100.00,SE,143,7.0,10.0,72,0.00,,,0.00,0.000000,,2013-01-23 06:53:00,
2013-01-23 01:02:00,28.0,20.0,-100.00,SE,143,7.0,10.0,72,0.00,,,0.00,0.000000,,2013-01-23 07:02:00,
2013-01-23 01:33:00,30.0,22.0,-100.00,South,169,4.0,7.0,71,0.00,,,0.00,0.000000,,2013-01-23 07:33:00,
2013-01-23 01:43:00,30.0,22.0,-100.00,South,169,4.0,7.0,71,0.00,,,0.00,0.000000,,2013-01-23 07:43:00,
2013-01-23 01:53:00,30.0,22.0,-100.00,South,169,4.0,7.0,71,0.00,,,0.00,0.000000,,2013-01-23 07:53:00,
2013-01-23 02:02:00,30.0,22.0,-100.00,South,169,4.0,7.0,71,0.00,,,0.00,0.000000,,2013-01-23 08:02:00,
2013-01-23 02:33:00,29.0,20.0,-100.00,SSE,165,5.0,7.0,70,0.00,,,0.00,0.000000,,2013-01-23 08:33:00,
2013-01-23 02:43:00,29.0,20.0,-100.00,SSE,165,5.0,7.0,70,0.00,,,0.00,0.000000,,2013-01-23 08:43:00,
2013-01-23 02:53:00,29.0,20.0,-100.00,SSE,165,5.0,7.0,70,0.00,,,0.00,0.000000,,2013-01-23 08:53:00,
2013-01-23 03:03:00,29.0,20.0,-100.00,SSE,165,5.0,7.0,70,0.00,,,0.00,0.000000,,2013-01-23 09:03:00,
2013-01-23 03:33:00,32.0,25.0,-100.00,SSW,199,4.0,6.0,74,0.00,,,0.00,0.000000,,2013-01-23 09:33:00,
2013-01-23 03:43:00,32.0,25.0,-100.00,SSW,199,4.0,6.0,74,0.00,,,0.00,0.000000,,2013-01-23 09:43:00,
2013-01-23 03:53:00,32.0,25.0,-100.00,SSW,199,4.0,6.0,74,0.00,,,0.00,0.000000,,2013-01-23 09:53:00,
2013-01-23 04:03:00,32.0,25.0,-100.00,SSW,199,4.0,6.0,74,0.00,,,0.00,0.000000,,2013-01-23 10:03:00,
2013-01-23 04:33:00,35.0,26.0,-100.00,SSW,194,4.0,7.0,68,0.00,,,0.00,0.000000,,2013-01-23 10:33:00,
2013-01-23 04:43:00,35.0,26.0,-100.00,SSW,194,4.0,7.0,68,0.00,,,0.00,0.000000,,2013-01-23 10:43:00,
2013-01-23 04:53:00,35.0,26.0,-100.00,SSW,194,4.0,7.0,68,0.00,,,0.00,0.000000,,2013-01-23 10:53:00,
2013-01-23 05:02:00,35.0,26.0,-100.00,SSW,194,4.0,7.0,68,0.00,,,0.00,0.000000,,2013-01-23 11:02:00,
2013-01-23 05:34:00,37.0,28.0,-100.00,SW,221,4.0,7.0,70,0.00,,,0.00,0.000000,,2013-01-23 11:34:00,
2013-01-23 05:43:00,37.0,28.0,-100.00,SW,221,4.0,7.0,70,0.00,,,0.00,0.000000,,2013-01-23 11:43:00,
2013-01-23 05:53:00,37.0,28.0,-100.00,SW,221,4.0,7.0,70,0.00,,,0.00,0.000000,,2013-01-23 11:53:00,
2013-01-23 06:03:00,37.0,28.0,-100.00,SW,221,4.0,7.0,70,0.00,,,0.00,0.000000,,2013-01-23 12:03:00,
2013-01-23 06:33:00,38.0,30.0,-100.00,SSW,207,3.0,7.0,74,0.00,,,0.00,0.000000,,2013-01-23 12:33:00,
2013-01-23 06:43:00,38.0,30.0,-100.00,SSW,207,3.0,7.0,74,0.00,,,0.00,0.000000,,2013-01-23 12:43:00,
2013-01-23 06:53:00,38.0,30.0,-100.00,SSW,207,3.0,7.0,74,0.00,,,0.00,0.000000,,2013-01-23 12:53:00,
2013-01-23 07:03:00,38.0,30.0,-100.00,SSW,207,3.0,7.0,74,0.00,,,0.00,0.000000,,2013-01-23 13:03:00,
2013-01-23 07:33:00,33.0,24.0,-100.00,SE,137,4.0,6.0,70,0.00,,,0.00,0.000000,,2013-01-23 13:33:00,
2013-01-23 07:43:00,33.0,24.0,-100.00,SE,137,4.0,6.0,70,0.00,,,0.00,0.000000,,2013-01-23 13:43:00,
2013-01-23 07:53:00,33.0,24.0,-100.00,SE,137,4.0,6.0,70,0.00,,,0.00,0.000000,,2013-01-23 13:53:00,
2013-01-23 08:02:00,33.0,24.0,-100.00,SE,137,4.0,6.0,70,0.00,,,0.00,0.000000,,2013-01-23 14:02:00,
2013-01-23 08:33:00,38.0,29.0,-100.00,ESE,123,3.0,5.0,71,0.00,,,0.00,19.000000,,2013-01-23 14:33:00,
2013-01-23 08:43:00,38.0,29.0,-100.00,ESE,123,3.0,5.0,71,0.00,,,0.00,19.000000,,2013-01-23 14:43:00,
2013-01-23 08:53:00,38.0,29.0,-100.00,ESE,123,3.0,5.0,71,0.00,,,0.00,19.000000,,2013-01-23 14:53:00,
2013-01-23 09:03:00,38.0,29.0,-100.00,ESE,123,3.0,5.0,71,0.00,,,0.00,19.000000,,2013-01-23 15:03:00,
2013-01-23 09:33:00,43.0,32.0,-100.00,SE,146,4.0,5.0,65,0.00,,,0.00,172.000000,,2013-01-23 15:33:00,
2013-01-23 09:43:00,43.0,32.0,-100.00,SE,146,4.0,5.0,65,0.00,,,0.00,172.000000,,2013-01-23 15:43:00,
2013-01-23 09:53:00,43.0,32.0,-100.00,SE,146,4.0,5.0,65,0.00,,,0.00,172.000000,,2013-01-23 15:53:00,
2013-01-23 10:03:00,43.0,32.0,-100.00,SE,146,4.0,5.0,65,0.00,,,0.00,172.000000,,2013-01-23 16:03:00,
2013-01-23 10:33:00,44.0,30.0,-100.00,SE,141,5.0,7.0,57,0.00,,,0.00,384.000000,,2013-01-23 16:33:00,
2013-01-23 10:43:00,44.0,30.0,-100.00,SE,141,5.0,7.0,57,0.00,,,0.00,384.000000,,2013-01-23 16:43:00,
2013-01-23 10:53:00,44.0,30.0,-100.00,SE,141,5.0,7.0,57,0.00,,,0.00,384.000000,,2013-01-23 16:53:00,
2013-01-23 11:03:00,44.0,30.0,-100.00,SE,141,5.0,7.0,57,0.00,,,0.00,384.000000,,2013-01-23 17:03:00,
2013-01-23 11:34:00,50.0,33.0,-100.00,SW,223,4.0,7.0,51,0.00,,,0.00,556.000000,,2013-01-23 17:34:00,
2013-01-23 11:43:00,50.0,33.0,-100.00,SW,223,4.0,7.0,51,0.00,,,0.00,556.000000,,2013-01-23 17:43:00,
2013-01-23 11:53:00,50.0,33.0,-100.00,SW,223,4.0,7.0,51,0.00,,,0.00,556.000000,,2013-01-23 17:53:00,
2013-01-23 12:03:00,50.0,33.0,-100.00,SW,223,4.0,7.0,51,0.00,,,0.00,556.000000,,2013-01-23 18:03:00,
2013-01-23 12:33:00,51.0,34.0,-100.00,SSW,205,6.0,10.0,51,0.00,,,0.00,666.000000,,2013-01-23 18:33:00,
2013-01-23 12:44:00,51.0,34.0,-100.00,SSW,205,6.0,10.0,51,0.00,,,0.00,666.000000,,2013-01-23 18:44:00,
2013-01-23 12:53:00,51.0,34.0,-100.00,SSW,205,6.0,10.0,51,0.00,,,0.00,666.000000,,2013-01-23 18:53:00,
2013-01-23 13:03:00,51.0,34.0,-100.00,SSW,205,6.0,10.0,51,0.00,,,0.00,666.000000,,2013-01-23 19:03:00,
2013-01-23 13:33:00,52.0,35.0,-100.00,South,187,6.0,12.0,53,0.00,,,0.00,707.000000,,2013-01-23 19:33:00,
2013-01-23 13:43:00,52.0,35.0,-100.00,South,187,6.0,12.0,53,0.00,,,0.00,707.000000,,2013-01-23 19:43:00,
2013-01-23 13:53:00,52.0,35.0,-100.00,South,187,6.0,12.0,53,0.00,,,0.00,707.000000,,2013-01-23 19:53:00,
2013-01-23 14:03:00,52.0,35.0,-100.00,South,187,6.0,12.0,53,0.00,,,0.00,707.000000,,2013-01-23 20:03:00,
2013-01-23 15:34:00,53.0,38.0,-100.00,WSW,253,6.0,11.0,56,-99.99,,,0.00,488.000000,,2013-01-23 21:34:00,
2013-01-23 15:43:00,53.0,38.0,-100.00,WSW,253,6.0,11.0,56,-99.99,,,0.00,488.000000,,2013-01-23 21:43:00,
2013-01-23 15:53:00,53.0,38.0,-100.00,WSW,253,6.0,11.0,56,-99.99,,,0.00,488.000000,,2013-01-23 21:53:00,
2013-01-23 16:02:00,53.0,38.0,-100.00,WSW,253,6.0,11.0,56,-99.99,,,0.00,488.000000,,2013-01-23 22:02:00,
2013-01-23 16:33:00,55.0,41.0,-100.00,WSW,241,5.0,9.0,59,0.00,,,0.00,338.000000,,2013-01-23 22:33:00,
2013-01-23 16:43:00,55.0,41.0,-100.00,WSW,241,5.0,9.0,59,0.00,,,0.00,338.000000,,2013-01-23 22:43:00,
2013-01-23 16:53:00,55.0,41.0,-100.00,WSW,241,5.0,9.0,59,0.00,,,0.00,338.000000,,2013-01-23 22:53:00,
2013-01-23 17:03:00,55.0,41.0,-100.00,WSW,241,5.0,9.0,59,0.00,,,0.00,338.000000,,2013-01-23 23:03:00,
2013-01-23 17:33:00,52.0,40.0,-100.00,WSW,256,4.0,7.0,63,0.00,,,0.00,195.000000,,2013-01-23 23:33:00,
2013-01-23 17:43:00,52.0,40.0,-100.00,WSW,256,4.0,7.0,63,0.00,,,0.00,195.000000,,2013-01-23 23:43:00,
2013-01-23 17:53:00,52.0,40.0,-100.00,WSW,256,4.0,7.0,63,0.00,,,0.00,195.000000,,2013-01-23 23:53:00,
2013-01-23 18:03:00,52.0,40.0,-100.00,WSW,256,4.0,7.0,63,0.00,,,0.00,195.000000,,2013-01-24 00:03:00,
2013-01-23 18:33:00,51.0,44.0,-100.00,West,273,6.0,10.0,78,0.00,,,0.00,11.000000,,2013-01-24 00:33:00,
2013-01-23 18:43:00,51.0,44.0,-100.00,West,273,6.0,10.0,78,0.00,,,0.00,11.000000,,2013-01-24 00:43:00,
2013-01-23 18:53:00,51.0,44.0,-100.00,West,273,6.0,10.0,78,0.00,,,0.00,11.000000,,2013-01-24 00:53:00,
2013-01-23 19:03:00,51.0,44.0,-100.00,West,273,6.0,10.0,78,0.00,,,0.00,11.000000,,2013-01-24 01:03:00,
2013-01-23 19:33:00,54.0,48.0,-100.00,West,259,7.0,13.0,81,0.00,,,0.00,0.000000,,2013-01-24 01:33:00,
2013-01-23 19:43:00,54.0,48.0,-100.00,West,259,7.0,13.0,81,0.00,,,0.00,0.000000,,2013-01-24 01:43:00,
2013-01-23 19:52:00,54.0,48.0,-100.00,West,259,7.0,13.0,81,0.00,,,0.00,0.000000,,2013-01-24 01:52:00,
2013-01-23 20:02:00,54.0,48.0,-100.00,West,259,7.0,13.0,81,0.00,,,0.00,0.000000,,2013-01-24 02:02:00,
2013-01-23 20:33:00,52.0,46.0,-100.00,West,260,6.0,10.0,80,0.00,,,0.00,0.000000,,2013-01-24 02:33:00,
2013-01-23 20:43:00,52.0,46.0,-100.00,West,260,6.0,10.0,80,0.00,,,0.00,0.000000,,2013-01-24 02:43:00,
2013-01-23 20:52:00,52.0,46.0,-100.00,West,260,6.0,10.0,80,0.00,,,0.00,0.000000,,2013-01-24 02:52:00,
2013-01-23 21:02:00,52.0,46.0,-100.00,West,260,6.0,10.0,80,0.00,,,0.00,0.000000,,2013-01-24 03:02:00,
2013-01-23 21:33:00,53.0,47.0,-100.00,West,265,6.0,9.0,79,0.00,,,0.00,0.000000,,2013-01-24 03:33:00,
2013-01-23 21:43:00,53.0,47.0,-100.00,West,265,6.0,9.0,79,0.00,,,0.00,0.000000,,2013-01-24 03:43:00,
2013-01-23 21:53:00,53.0,47.0,-100.00,West,265,6.0,9.0,79,0.00,,,0.00,0.000000,,2013-01-24 03:53:00,
2013-01-23 22:02:00,53.0,47.0,-100.00,West,265,6.0,9.0,79,0.00,,,0.00,0.000000,,2013-01-24 04:02:00,
2013-01-23 22:33:00,52.0,47.0,-100.00,WNW,291,5.0,10.0,82,0.00,,,0.00,0.000000,,2013-01-24 04:33:00,
2013-01-23 22:43:00,52.0,47.0,-100.00,WNW,291,5.0,10.0,82,0.00,,,0.00,0.000000,,2013-01-24 04:43:00,
2013-01-23 22:53:00,52.0,47.0,-100.00,WNW,291,5.0,10.0,82,0.00,,,0.00,0.000000,,2013-01-24 04:53:00,
2013-01-23 23:03:00,52.0,47.0,-100.00,WNW,291,5.0,10.0,82,0.00,,,0.00,0.000000,,2013-01-24 05:03:00,
2013-01-23 23:33:00,50.0,46.0,-100.00,NNW,335,7.0,9.0,85,0.00,,,0.00,0.000000,,2013-01-24 05:33:00,
2013-01-23 23:43:00,50.0,46.0,-100.00,NNW,335,7.0,9.0,85,0.00,,,0.00,0.000000,,2013-01-24 05:43:00,
2013-01-23 23:53:00,50.0,46.0,-100.00,NNW,335,7.0,9.0,85,0.00,,,0.00,0.000000,,2013-01-24 05:53:00,